Regional Weather Roundup
Issued by NWS Cleveland, OH

Home | Current Version | Previous Version | Graphics & Text | Print | Product List | Glossary On
Versions: 1 2 3 4 5 6 7 8 9 10 11 12 13 14 15 16 17 18 19 20 21 22 23 24 25 26 27 28 29 30 31 32 33 34 35 36 37 38 39 40 41 42 43 44 45 46 47 48 49 50
814
ASUS41 KCLE 262302
RWRCLE
OHIO REGIONAL WEATHER ROUNDUP
NATIONAL WEATHER SERVICE CLEVELAND, OH
700 PM EDT TUE JUL 26 2016

NOTE: "FAIR" INDICATES FEW OR NO CLOUDS BELOW 12,000 FEET WITH NO
SIGNIFICANT WEATHER AND/OR OBSTRUCTIONS TO VISIBILITY.

OHZ001>008-015>018-024>027-034-035-043-044-270000-
   NORTHWEST OHIO

CITY           SKY/WX    TMP DP  RH WIND       PRES   REMARKS
DEFIANCE       SUNNY     86  61  42 CALM      29.99F
FINDLAY        CLOUDY    86  60  41 CALM      29.99S
TOLEDO EXPRESS MOSUNNY   81  63  54 S5        29.99S
TOLEDO EXEC    SUNNY     85  59  41 SE6       30.00S
LIMA           PTSUNNY   82  67  60 CALM      30.01R
$$

OHZ009>014-019>023-028>033-038-089-270000-
   NORTHEAST OHIO

CITY           SKY/WX    TMP DP  RH WIND       PRES   REMARKS
CLE-HOPKINS    CLOUDY    83  55  38 NE7       30.03S
CLE-LAKEFRONT  PTSUNNY   80  63  55 N7        30.00S
CUY CO. ARPT   PTSUNNY  N/A N/A N/A E9        30.02F
LORAIN-ELYRIA  CLOUDY    80  57  45 NE7       30.02R
ASHTABULA      CLOUDY    78  61  55 N5        30.02F
AKRON-CANTON   CLOUDY    80  58  46 N9        30.01S
WOOSTER        PTSUNNY   80  58  46 N6        30.02R
MANSFIELD      CLOUDY    80  61  52 N8        30.02S
YOUNGSTOWN     CLOUDY    79  59  50 NE7       30.02R
$$

OHZ042-051>053-060>062-070>072-077>081-270000-
  SOUTHWEST OHIO

CITY           SKY/WX    TMP DP  RH WIND       PRES   REMARKS
CINC-COVINGTON PTSUNNY   83  73  72 E6        30.00S
CINC-LUNKEN    MOSUNNY   83  75  77 VRB3      29.99S HX  90
HAMILTON       CLOUDY    84  72  67 CALM      30.00S
DAYTON         CLOUDY    81  67  62 NW5       30.02R
WRIGHT-PAT AFB CLOUDY    82  71  68 NW5       29.99F
DAYTON GENERAL CLOUDY    84  68  58 CALM      29.99F
WILMINGTON     MOSUNNY   81  71  71 CALM      30.00F
$$

OHZ036-037-039>041-045>050-054>059-063>069-073>076-082>088-270000-
  CENTRAL AND SOUTHEAST OHIO

CITY           SKY/WX    TMP DP  RH WIND       PRES   REMARKS
COLUMBUS       CLOUDY    81  70  69 SW6       29.98F
OSU AIRPORT    LGT RAIN  81  68  64 NW7       29.98F
BOLTON FIELD   MOSUNNY   79  73  83 SW6       30.00F
RICKENBACK AFB CLOUDY    79  73  83 SW3       29.98F
NEWARK         CLOUDY    82  70  66 SW8       29.98F
MARION         CLOUDY    84  65  52 NE12      30.01R
LANCASTER      CLOUDY    78  74  87 SW6       30.00F
ZANESVILLE     CLOUDY    84  70  62 W3        29.98F
NEW PHILLY     CLOUDY    87  62  43 N5        29.99S
$$




USA.gov is the U.S. government's official web portal to all federal, state and local government web resources and services.